| time (UTC) | temp F | wind direction | speed MPH | gust MPH | rain 1hr in | rain 24hr in | rain mn in | humidity % | barometer mb |
| 20260506215323 | 0 | 0.0 | 0.0 | 0.00 | 0.00 | 0.00 | 1014.9 | ||
| 20260506214824 | 0 | 0.0 | 0.0 | 0.00 | 0.00 | 0.00 | 1014.9 | ||
| 20260506214334 | 0 | 0.0 | 0.0 | 0.00 | 0.00 | 0.00 | 1014.9 | ||
| 20260506213333 | 0 | 0.0 | 0.0 | 0.00 | 0.00 | 0.00 | 1014.7 | ||
| 20260506212820 | 0 | 0.0 | 0.0 | 0.00 | 0.00 | 0.00 | 1014.6 | ||
| 20260506212323 | 0 | 0.0 | 0.0 | 0.00 | 0.00 | 0.00 | 1014.6 | ||
| 20260506210821 | 0 | 0.0 | 0.0 | 0.00 | 0.00 | 0.00 | 1014.6 | ||
| 20260506210345 | 0 | 0.0 | 0.0 | 0.00 | 0.00 | 0.00 | 1014.5 | ||
| 20260506205848 | 0 | 0.0 | 0.0 | 0.00 | 0.00 | 0.00 | 1014.4 | ||
| 20260506203837 | 0 | 0.0 | 0.0 | 0.00 | 0.00 | 0.00 | 1014.4 | ||
| 20260506203346 | 0 | 0.0 | 0.0 | 0.00 | 0.00 | 0.00 | 1014.3 | ||
| 20260506202349 | 49 | 127 | 0.0 | 3.0 | 0.00 | 0.00 | 0.00 | 68 | 1014.3 |
| 20260506201816 | 49 | 127 | 0.0 | 3.0 | 0.00 | 0.00 | 0.00 | 68 | 1014.3 |
| 20260506201346 | 49 | 120 | 1.0 | 3.0 | 0.00 | 0.00 | 0.00 | 67 | 1014.2 |
| 20260506200854 | 49 | 143 | 1.0 | 2.0 | 0.00 | 0.00 | 0.00 | 66 | 1014.1 |
| 20260506200336 | 49 | 132 | 0.0 | 1.0 | 0.00 | 0.00 | 0.00 | 66 | 1014.1 |
| 20260506195840 | 49 | 116 | 0.0 | 1.0 | 0.00 | 0.00 | 0.00 | 65 | 1014.0 |
| 20260506195321 | 50 | 134 | 0.0 | 1.0 | 0.00 | 0.00 | 0.00 | 64 | 1014.1 |
| 20260506194848 | 50 | 133 | 0.0 | 1.0 | 0.00 | 0.00 | 0.00 | 64 | 1014.1 |
| 20260506194329 | 50 | 133 | 0.0 | 1.0 | 0.00 | 0.00 | 0.00 | 63 | 1013.9 |
| 20260506193835 | 51 | 132 | 0.0 | 1.0 | 0.00 | 0.00 | 0.00 | 63 | 1013.8 |
| 20260506193318 | 51 | 131 | 0.0 | 2.0 | 0.00 | 0.00 | 0.00 | 62 | 1013.8 |
| 20260506192819 | 51 | 131 | 0.0 | 2.0 | 0.00 | 0.00 | 0.00 | 62 | 1013.8 |
| 20260506192321 | 52 | 127 | 1.0 | 4.0 | 0.00 | 0.00 | 0.00 | 61 | 1013.8 |
| 20260506191829 | 52 | 127 | 1.0 | 4.0 | 0.00 | 0.00 | 0.00 | 61 | 1013.8 |
| 20260506191311 | 52 | 125 | 0.0 | 4.0 | 0.00 | 0.00 | 0.00 | 61 | 1013.7 |
| 20260506190826 | 52 | 116 | 1.0 | 4.0 | 0.00 | 0.00 | 0.00 | 60 | 1013.7 |
| 20260506190314 | 52 | 122 | 1.0 | 4.0 | 0.00 | 0.00 | 0.00 | 59 | 1013.6 |
| 20260506185844 | 53 | 115 | 2.0 | 4.0 | 0.00 | 0.00 | 0.00 | 59 | 1013.6 |
| 20260506185345 | 53 | 146 | 1.0 | 4.0 | 0.00 | 0.00 | 0.00 | 58 | 1013.7 |
| 20260506184833 | 53 | 134 | 1.0 | 5.0 | 0.00 | 0.00 | 0.00 | 58 | 1013.7 |
| 20260506184315 | 54 | 110 | 1.0 | 5.0 | 0.00 | 0.00 | 0.00 | 57 | 1013.6 |
| 20260506183824 | 54 | 115 | 0.0 | 5.0 | 0.00 | 0.00 | 0.00 | 57 | 1013.7 |
| 20260506183334 | 54 | 146 | 1.0 | 4.0 | 0.00 | 0.00 | 0.00 | 56 | 1013.6 |
| 20260506182844 | 54 | 125 | 1.0 | 4.0 | 0.00 | 0.00 | 0.00 | 56 | 1013.6 |
| 20260506182324 | 55 | 130 | 1.0 | 5.0 | 0.00 | 0.00 | 0.00 | 56 | 1013.5 |
| 20260506181832 | 55 | 112 | 1.0 | 5.0 | 0.00 | 0.00 | 0.00 | 55 | 1013.5 |
| 20260506181334 | 55 | 129 | 2.0 | 5.0 | 0.00 | 0.00 | 0.00 | 55 | 1013.5 |
| 20260506180821 | 55 | 132 | 2.0 | 5.0 | 0.00 | 0.00 | 0.00 | 55 | 1013.4 |
| 20260506180346 | 55 | 122 | 0.0 | 4.0 | 0.00 | 0.00 | 0.00 | 55 | 1013.3 |
| 20260506175851 | 55 | 129 | 2.0 | 4.0 | 0.00 | 0.00 | 0.00 | 54 | 1013.3 |
| 20260506175312 | 55 | 143 | 1.0 | 5.0 | 0.00 | 0.00 | 0.00 | 54 | 1013.2 |
| 20260506174842 | 55 | 126 | 2.0 | 5.0 | 0.00 | 0.00 | 0.00 | 53 | 1013.2 |
| 20260506174323 | 56 | 130 | 1.0 | 5.0 | 0.00 | 0.00 | 0.00 | 53 | 1013.2 |
| 20260506173832 | 56 | 138 | 3.0 | 6.0 | 0.00 | 0.00 | 0.00 | 51 | 1013.2 |
| 20260506173316 | 56 | 114 | 2.0 | 6.0 | 0.00 | 0.00 | 0.00 | 51 | 1013.2 |
| 20260506172817 | 56 | 110 | 2.0 | 6.0 | 0.00 | 0.00 | 0.00 | 51 | 1013.2 |
| 20260506172346 | 57 | 127 | 2.0 | 5.0 | 0.00 | 0.00 | 0.00 | 50 | 1013.1 |
| 20260506171827 | 56 | 104 | 2.0 | 7.0 | 0.00 | 0.00 | 0.00 | 51 | 1013.1 |
| 20260506171335 | 56 | 91 | 1.0 | 7.0 | 0.00 | 0.00 | 0.00 | 50 | 1013.2 |
| 20260506170817 | 56 | 112 | 3.0 | 6.0 | 0.00 | 0.00 | 0.00 | 49 | 1013.1 |
| 20260506170317 | 56 | 152 | 2.0 | 6.0 | 0.00 | 0.00 | 0.00 | 48 | 1013.1 |
| 20260506165824 | 57 | 68 | 2.0 | 5.0 | 0.00 | 0.00 | 0.00 | 47 | 1013.0 |
| 20260506165326 | 57 | 51 | 1.0 | 5.0 | 0.00 | 0.00 | 0.00 | 47 | 1013.1 |
| 20260506164828 | 57 | 82 | 1.0 | 6.0 | 0.00 | 0.00 | 0.00 | 48 | 1013.0 |
| 20260506164337 | 57 | 83 | 3.0 | 7.0 | 0.00 | 0.00 | 0.00 | 47 | 1013.1 |
| 20260506163819 | 57 | 89 | 2.0 | 7.0 | 0.00 | 0.00 | 0.00 | 48 | 1013.1 |
| 20260506163322 | 58 | 103 | 3.0 | 6.0 | 0.00 | 0.00 | 0.00 | 47 | 1013.1 |
| 20260506162830 | 58 | 123 | 2.0 | 10.0 | 0.00 | 0.00 | 0.00 | 47 | 1013.1 |
| 20260506162312 | 58 | 134 | 3.0 | 10.0 | 0.00 | 0.00 | 0.00 | 47 | 1013.1 |
| 20260506161834 | 59 | 106 | 2.0 | 5.0 | 0.00 | 0.00 | 0.00 | 46 | 1013.0 |
| 20260506161322 | 59 | 120 | 2.0 | 12.0 | 0.00 | 0.00 | 0.00 | 46 | 1013.0 |
| 20260506160824 | 59 | 118 | 3.0 | 12.0 | 0.00 | 0.00 | 0.00 | 46 | 1012.9 |
| 20260506160314 | 59 | 4 | 1.0 | 7.0 | 0.00 | 0.00 | 0.00 | 46 | 1012.9 |
| 20260506155829 | 59 | 76 | 2.0 | 8.0 | 0.00 | 0.00 | 0.00 | 46 | 1013.0 |
| 20260506155338 | 59 | 79 | 3.0 | 8.0 | 0.00 | 0.00 | 0.00 | 46 | 1012.9 |
| 20260506154818 | 59 | 75 | 2.0 | 6.0 | 0.00 | 0.00 | 0.00 | 47 | 1013.0 |
| 20260506154319 | 58 | 110 | 2.0 | 7.0 | 0.00 | 0.00 | 0.00 | 47 | 1013.0 |
| 20260506153825 | 58 | 134 | 2.0 | 7.0 | 0.00 | 0.00 | 0.00 | 47 | 1013.0 |
| 20260506153328 | 59 | 117 | 3.0 | 6.0 | 0.00 | 0.00 | 0.00 | 47 | 1013.1 |
| 20260506152828 | 59 | 109 | 2.0 | 7.0 | 0.00 | 0.00 | 0.00 | 48 | 1013.0 |
| 20260506152319 | 58 | 100 | 3.0 | 9.0 | 0.00 | 0.00 | 0.00 | 47 | 1013.1 |
| 20260506151819 | 59 | 145 | 2.0 | 9.0 | 0.00 | 0.00 | 0.00 | 48 | 1013.1 |
| 20260506151328 | 60 | 131 | 3.0 | 13.0 | 0.00 | 0.00 | 0.00 | 48 | 1013.2 |
| 20260506150857 | 59 | 70 | 4.0 | 13.0 | 0.00 | 0.00 | 0.00 | 48 | 1013.2 |
| 20260506150315 | 59 | 68 | 4.0 | 8.0 | 0.00 | 0.00 | 0.00 | 47 | 1013.2 |
| 20260506145816 | 59 | 85 | 3.0 | 9.0 | 0.00 | 0.00 | 0.00 | 48 | 1013.1 |
| 20260506145325 | 58 | 81 | 4.0 | 9.0 | 0.00 | 0.00 | 0.00 | 48 | 1013.3 |
| 20260506144834 | 58 | 43 | 3.0 | 7.0 | 0.00 | 0.00 | 0.00 | 49 | 1013.2 |
| 20260506144315 | 58 | 72 | 1.0 | 7.0 | 0.00 | 0.00 | 0.00 | 49 | 1013.2 |
| 20260506143817 | 59 | 55 | 3.0 | 7.0 | 0.00 | 0.00 | 0.00 | 49 | 1013.3 |
| 20260506143347 | 59 | 95 | 2.0 | 5.0 | 0.00 | 0.00 | 0.00 | 50 | 1013.3 |
| 20260506142827 | 58 | 125 | 2.0 | 7.0 | 0.00 | 0.00 | 0.00 | 49 | 1013.3 |
| 20260506142337 | 59 | 67 | 3.0 | 7.0 | 0.00 | 0.00 | 0.00 | 49 | 1013.4 |
| 20260506141837 | 59 | 191 | 2.0 | 7.0 | 0.00 | 0.00 | 0.00 | 50 | 1013.3 |
| 20260506141324 | 58 | 120 | 3.0 | 7.0 | 0.00 | 0.00 | 0.00 | 50 | 1013.4 |
| 20260506140826 | 57 | 106 | 2.0 | 7.0 | 0.00 | 0.00 | 0.00 | 52 | 1013.3 |
| 20260506140325 | 57 | 72 | 2.0 | 10.0 | 0.00 | 0.00 | 0.00 | 51 | 1013.4 |
| 20260506135833 | 57 | 111 | 3.0 | 10.0 | 0.00 | 0.00 | 0.00 | 51 | 1013.4 |
| 20260506135314 | 57 | 114 | 5.0 | 12.0 | 0.00 | 0.00 | 0.00 | 50 | 1013.4 |
| 20260506134816 | 58 | 49 | 2.0 | 7.0 | 0.00 | 0.00 | 0.00 | 50 | 1013.3 |
| 20260506134324 | 58 | 83 | 2.0 | 11.0 | 0.00 | 0.00 | 0.00 | 51 | 1013.4 |
| 20260506133823 | 58 | 141 | 3.0 | 11.0 | 0.00 | 0.00 | 0.00 | 51 | 1013.4 |
| 20260506133325 | 57 | 354 | 4.0 | 10.0 | 0.00 | 0.00 | 0.00 | 50 | 1013.4 |
| 20260506132831 | 58 | 80 | 3.0 | 9.0 | 0.00 | 0.00 | 0.00 | 51 | 1013.4 |
| 20260506132311 | 58 | 104 | 2.0 | 14.0 | 0.00 | 0.00 | 0.00 | 52 | 1013.4 |
| 20260506131811 | 58 | 98 | 4.0 | 14.0 | 0.00 | 0.00 | 0.00 | 52 | 1013.4 |
| 20260506131317 | 58 | 158 | 4.0 | 12.0 | 0.00 | 0.00 | 0.00 | 52 | 1013.5 |
| 20260506130837 | 59 | 115 | 2.0 | 9.0 | 0.00 | 0.00 | 0.00 | 53 | 1013.5 |